{"data":{"norad_id":61974,"epoch":"2026-09-21T01:18:07.084224Z","epoch_age_seconds":137759,"freshness":"FRESH","line1":"1 61974U 24210R   26264.05424866  .00012918  00000+0  47797-3 0  9998","line2":"2 61974  43.0006 156.9165 0001304 270.4704  89.5998 15.27589834104754","mean_motion":15.27589834,"eccentricity":0.0001304,"inclination_deg":43.0006,"raan_deg":156.9165,"arg_perigee_deg":270.4704,"mean_anomaly_deg":89.5998,"bstar":0.00047797,"rev_number":10475,"period_min":94.26614186279,"perigee_km":482.12495483675,"apogee_km":483.91434449098,"semimajor_km":6861.1566496639,"source":"CELESTRAK","updated_at":"2026-09-22T09:00:49.479956Z"}}